{"data":{"norad_id":81371,"epoch":"2026-09-18T14:25:47.703648Z","epoch_age_seconds":178471,"freshness":"STALE","line1":"1 81371U          26261.60124657  .00002626  00000+0  41121-3 0  9995","line2":"2 81371  98.8310  26.1482 0067292 210.5403 149.1876 14.72231651682997","mean_motion":14.72231651,"eccentricity":0.0067292,"inclination_deg":98.831,"raan_deg":26.1482,"arg_perigee_deg":210.5403,"mean_anomaly_deg":149.1876,"bstar":0.00041121,"rev_number":68299,"period_min":97.810694330739,"perigee_km":606.63245766192,"apogee_km":701.2731349767,"semimajor_km":7032.0897963193,"source":"CELESTRAK","updated_at":"2026-09-20T09:00:32.387061Z"}}